METEOR 2-11 DEB, 40317

Orbit data source: Space-Track

METEOR 2-11 DEB, 40317 is space debris in LEO originally from a launch on Thu, 05 Jul 1984 UTC launched from the Plesetsk Missile And Space Complex (PKMTR). Debris objects in space refer to the collection of defunct objects orbiting the Earth. Examples of debris include non-operational satellites, rocket bodies, and fragments generated from explosions, collisions, or faulty payload assembly.

Loading next visibility...
Identifier
40317, 1984-072C
Orbit
LEO
Country
Flag of CISCIS
Related business
Manufacturer
Unknown
Mission
Spacecraft
Bus & Motor
Unknown
Mass
Unknown
Launch date (UTC)
1984-07-05 (41 years ago)
Launch vehicle
Unknown
Launch site
Plesetsk Missile And Space Complex (PKMTR)
Object type
Payload
Rocket body
Debris
Shape & HBR
Unknown shape, 0.1 m
Radar Cross Section
Small (<0.1 m²)

Expand to show TLE details & history
Last TLE update: 1 week ago

TLE from 1 week ago
0 METEOR 2-11 DEB
1 40317U 84072C   25286.02875740  .00003138  00000-0  21839-2 0  9992
2 40317  82.5200 207.8757 0018086  35.3474 324.8889 13.98375420551486
Epoch: 2025-10-13T00:41Z
TLE epoch observation values (Epoch: 2025-10-13T00:41:24.639Z)
Latitude
-0.00002°
Longitude
175.68562°
Altitude
891.586 km
Speed
7.412 km/s
True Right ascension
13h 51m 30s
True Declination
0° 00' 00"
Sunlit
Object was in daylight at epoch
Visualization orbit readout
Latitude
Unknown
Longitude
Unknown
Altitude
Unknown
Speed
Unknown
Apparent Right ascension
Unknown
Apparent Declination
Unknown
Sunlit
N/A
Visualization observer readout
Local Sidereal Time
01:02:16
Azimuth
Unknown
Elevation
Unknown
Doppler factor
Unknown
Orbital elements
Apogee altitude
909.717 km
Perigee altitude
883.402 km
Semi-major axis
7,274.697 km
Eccentricity
0.00181
Inclination
82.52°
RAAN
207.8757°
Arg. of periapsis
35.3474°
True anomaly
324.76948°
Mean anomaly
324.8889°
Eccentric anomaly
324.82921°
Mean motion
3.49801 °/min
Orbital period
102.92 mins
BSTAR
0.0021839
Loading maneuver chart data...
Computing Atmospheric mass density...
Loading historical data...
Loading historical data...
Loading historical data...
Loading historical data...
Loading historical data...
Loading historical data...
Loading historical data...

Documentation

Showing up to 5 results
|